This is the latest recevied weather packets stored in our database for station/object SP9TKN-1. If no packets are shown the sender has not sent any weather packets the latest 10 day(s).
| Time | Temp. | Humidity | Pressure | Rain* | Wind** | Luminosity | Snow |
|---|---|---|---|---|---|---|---|
| 1788568509 | 19.44° C | 64% | 988.6 hPa | - | - | - | - |
| 1788567609 | 19.44° C | 59% | 988.3 hPa | - | - | - | - |
| 1788566709 | 20° C | 58% | 987.8 hPa | - | - | - | - |
| 1788565808 | 20° C | 56% | 988 hPa | - | - | - | - |
| 1788564908 | 20° C | 56% | 987.6 hPa | - | - | - | - |
| 1788564008 | 20° C | 56% | 987.7 hPa | - | - | - | - |
| 1788563108 | 20.56° C | 54% | 987.7 hPa | - | - | - | - |
| 1788562208 | 20.56° C | 53% | 987.4 hPa | - | - | - | - |
| 1788561355 | 20.56° C | 52% | 987.2 hPa | - | - | - | - |
| 1788561308 | 20.56° C | 52% | 987.2 hPa | - | - | - | - |
| 1788560408 | 20.56° C | 55% | 986.9 hPa | - | - | - | - |
| 1788559887 | 21.11° C | 59% | 986.2 hPa | - | - | - | - |
| 1788559507 | 21.11° C | 59% | 986.2 hPa | - | - | - | - |
| 1788558607 | 21.67° C | 58% | 986.2 hPa | - | - | - | - |
| 1788557707 | 21.67° C | 58% | 985.6 hPa | - | - | - | - |
| 1788556807 | 22.22° C | 55% | 985.4 hPa | - | - | - | - |
| 1788555907 | 22.22° C | 55% | 984.1 hPa | - | - | - | - |
| 1788555007 | 22.22° C | 55% | 984.4 hPa | - | - | - | - |
| 1788554109 | 22.22° C | 56% | 984.2 hPa | - | - | - | - |
| 1788553209 | 21.67° C | 56% | 984.3 hPa | - | - | - | - |
| 1788552309 | 21.67° C | 58% | 984.5 hPa | - | - | - | - |
| 1788551409 | 21.67° C | 58% | 984.7 hPa | - | - | - | - |
| 1788550508 | 21.67° C | 58% | 984.7 hPa | - | - | - | - |
| 1788549608 | 21.67° C | 57% | 984.7 hPa | - | - | - | - |
| 1788548708 | 22.22° C | 57% | 984.9 hPa | - | - | - | - |
* Rain since midnight (hover to see other rain measurements)
** Current wind speed in m/s (hover to see current wind gust speed)